Regional Weather Roundup
Issued by NWS

Home | Current Version | Previous Version | Graphics & Text | Print | Product List | Glossary On
Versions: 1 2 3 4 5 6 7 8 9 10 11 12 13 14 15 16 17 18 19 20 21 22 23 24 25 26 27
000
ASUS45 KCYS 251310
RWRWY

WYOMING REGIONAL WEATHER ROUNDUP
NATIONAL WEATHER SERVICE CHEYENNE WY
600 AM MST SAT FEB 25 2017

NOTE:  "FAIR" INDICATES FEW OR NO CLOUDS BELOW 12,000 FEET
WITH NO SIGNIFICANT WEATHER AND/OR OBSTRUCTIONS TO VISIBILITY.

WYZ001-251400-
YELLOWSTONE NATIONAL PARK

CITY           SKY/WX    TMP DP  RH WIND       PRES   REMARKS
LK YELLOWSTONE   N/A      1  -2  87 CALM      29.84F
W YELLOWSTONE  NOT AVBL

$$
WYZ002>013-054>058-071-098>099-251400-
NORTHERN WYOMING

CITY           SKY/WX    TMP DP  RH WIND       PRES   REMARKS
JACKSON        CLOUDY     7   3  85 CALM      29.95F
CODY           FAIR      20   4  50 W8G21     29.88F WCI  10
GREYBULL       CLOUDY    23  17  78 SE5       29.93F WCI  17
WORLAND        FAIR      14  12  92 S3        29.92F
SHERIDAN       MOCLDY    21  15  78 S6        29.92F WCI  13
BUFFALO        FAIR      15   7  70 VRB3      29.88F
GILLETTE       FAIR      19  16  88 W8        29.89F WCI   9
HULETT         CLOUDY    23  21  93 W6        29.89F WCI  16
NEWCASTLE      CLOUDY    18  14  86 CALM      29.92F

$$
WYZ014>020-022>026-101>103-251400-
CENTRAL WYOMING

CITY           SKY/WX    TMP DP  RH WIND       PRES   REMARKS
BIG PINEY      FAIR      -6 -11  79 NE3       29.94F
PINEDALE       FAIR      -6 -11  77 NW5       29.94F WCI -17
DUBOIS         FAIR       5  -6  61 N15       29.84S WCI -13
LANDER         FAIR       4  -2  76 W6        29.90F WCI  -7
RIVERTON       FAIR       6  -3  66 W13       29.91F WCI -10
CASPER         FAIR      11   4  73 SW9       29.91F WCI  -2
DOUGLAS        FAIR       0  -4  83 CALM      29.93S

$$
WYZ021-027>030-104>119-251400-
SOUTHERN WYOMING

CITY           SKY/WX    TMP DP  RH WIND       PRES   REMARKS
EVANSTON       FAIR       2  -3  80 SW9       29.95F WCI -13
KEMMERER       FLURRIES N/A N/A N/A W3        29.93F
FORT BRIDGER   FAIR       7  -1  68 W9        29.98F WCI  -6
ROCK SPRINGS   FAIR       5  -3  69 SW12      29.95F WCI -11
DIXON            N/A      0  -4  80 CALM      30.03S
RAWLINS        FAIR       5  -1  76 SW15      29.92F WCI -13
SARATOGA       FAIR       5  -2  72 S7        29.94F WCI  -7
LARAMIE        FAIR       6  -4  63 SW15      29.87S WCI -12
CHEYENNE       FAIR       8  -1  66 W6        29.89R WCI  -2
TORRINGTON     FAIR      -3  -7  82 W7        29.95S WCI -16
PINE BLUFFS    PTSUNNY    5   1  85 MISG      29.95S

$$




USA.gov is the U.S. government's official web portal to all federal, state and local government web resources and services.